CW6338 Weather Reports


Display with metric or nautical units.
time (UTC)temp
F
wind
direction
speed
MPH
gust
MPH
rain 1hr
in
rain 24hr
in
rain mn
in
humidity
%
barometer
mb
20260509151819 65 270 3.0 6.0 0.00 0.00 0.00 66 1007.9
20260509150817 64 225 2.0 4.0 0.00 0.00 0.00 72 1007.8
20260509145817 64 248 4.0 7.0 0.00 0.00 0.00 72 1007.8
20260509144817 63 293 6.0 9.0 0.00 0.00 0.00 73 1007.8
20260509143817 62 248 4.0 9.0 0.00 0.00 0.00 77 1007.9
20260509142817 61 248 4.0 7.0 0.00 0.00 0.00 79 1007.8
20260509141817 60 270 3.0 4.0 0.00 0.00 0.00 80 1007.8
20260509140817 60 248 3.0 5.0 0.00 0.00 0.00 83 1007.8
20260509135817 59 293 4.0 7.0 0.00 0.00 0.00 85 1007.8
20260509134817 58 225 5.0 10.0 0.00 0.00 0.00 87 1007.8
20260509133817 58 248 6.0 10.0 0.00 0.00 0.00 89 1007.6
20260509132817 57 293 3.0 6.0 0.00 0.00 0.00 92 1007.8
20260509131857 56 248 4.0 7.0 0.00 0.00 0.00 93 1007.7
20260509130837 54 225 4.0 6.0 0.00 0.00 0.00 93 1007.6
20260509125817 53 203 2.0 5.0 0.00 0.00 0.00 93 1007.5
20260509124835 52 225 3.0 4.0 0.00 0.00 0.00 93 1007.5
20260509123917 52 225 5.0 8.0 0.00 0.00 0.00 93 1007.5
20260509122917 52 225 3.0 6.0 0.00 0.00 0.00 93 1007.3
20260509121917 51 248 4.0 8.0 0.00 0.00 0.00 93 1007.3
20260509120917 51 225 1.0 2.0 0.00 0.00 0.00 93 1007.2
20260509115917 51 180 2.0 2.0 0.00 0.00 0.00 93 1007.2
20260509114917 50 203 1.0 5.0 0.00 0.00 0.00 93 1007.1
20260509113918 50 225 2.0 4.0 0.00 0.00 0.00 93 1007.0
20260509112957 50 203 3.0 5.0 0.00 0.00 0.00 93 1006.8
20260509111917 50 225 5.0 12.0 0.00 0.00 0.00 93 1006.7
20260509110916 50 270 4.0 6.0 0.00 0.00 0.00 93 1006.7
20260509105917 50 180 4.0 8.0 0.00 0.00 0.00 93 1006.7
20260509104937 50 203 3.0 6.0 0.00 0.00 0.00 93 1006.7
20260509103957 50 203 4.0 6.0 0.00 0.00 0.00 93 1006.6
20260509102936 50 248 1.0 4.0 0.00 0.00 0.00 93 1006.7
20260509101916 50 225 4.0 6.0 0.00 0.00 0.00 93 1006.7
20260509100916 50 180 4.0 8.0 0.00 0.00 0.00 93 1006.6
20260509095916 51 180 4.0 7.0 0.00 0.00 0.00 93 1006.6
20260509094916 51 203 4.0 7.0 0.00 0.00 0.00 93 1006.7
20260509093916 51 203 5.0 8.0 0.00 0.00 0.00 93 1006.7
20260509092916 51 203 4.0 6.0 0.00 0.00 0.00 93 1006.6
20260509091916 51 225 3.0 5.0 0.00 0.00 0.00 93 1006.9
20260509090936 51 225 3.0 5.0 0.00 0.00 0.00 93 1006.9
20260509085916 51 203 2.0 4.0 0.00 0.00 0.00 93 1006.8
20260509084936 51 203 3.0 5.0 0.00 0.00 0.00 93 1006.8
20260509083916 51 180 3.0 5.0 0.00 0.00 0.00 93 1006.7
20260509082936 51 225 3.0 5.0 0.00 0.00 0.00 93 1006.9
20260509081916 52 225 4.0 6.0 0.00 0.00 0.00 93 1006.8
20260509080916 52 203 3.0 6.0 0.00 0.00 0.00 93 1006.6
20260509075916 52 225 4.0 6.0 0.00 0.00 0.00 93 1006.7
20260509074916 52 225 4.0 8.0 0.00 0.00 0.00 93 1006.8
20260509073916 52 248 5.0 7.0 0.00 0.00 0.00 93 1006.6
20260509072936 52 180 3.0 6.0 0.00 0.00 0.00 93 1006.5
20260509071916 52 180 4.0 6.0 0.00 0.00 0.00 93 1006.6
20260509070916 52 203 3.0 7.0 0.00 0.00 0.00 92 1006.6
20260509065916 52 158 5.0 8.0 0.00 0.00 0.00 92 1006.8
20260509064936 52 180 3.0 7.0 0.00 0.00 0.00 92 1006.9
20260509063916 52 203 3.0 6.0 0.00 0.00 0.00 92 1007.1
20260509062916 52 203 3.0 6.0 0.00 0.00 0.00 92 1007.2
20260509061916 52 203 5.0 7.0 0.00 0.00 0.00 92 1007.4
20260509060916 53 225 3.0 6.0 0.00 0.00 0.00 92 1007.4
20260509055936 53 158 2.0 5.0 0.00 0.00 0.00 92 1007.5
20260509054956 53 158 3.0 4.0 0.00 0.00 0.00 92 1007.6
20260509053916 53 158 4.0 7.0 0.00 0.00 0.00 92 1007.6
20260509052916 53 248 3.0 7.0 0.00 0.00 0.00 92 1007.7
20260509051916 53 203 3.0 7.0 0.00 0.00 0.00 92 1007.8
20260509050916 54 180 3.0 5.0 0.00 0.00 0.00 92 1007.9
20260509045956 54 180 3.0 7.0 0.00 0.00 0.00 91 1008.1
20260509044916 54 225 4.0 7.0 0.00 0.00 0.00 91 1008.2
20260509043916 54 225 3.0 6.0 0.00 0.00 0.00 91 1008.2
20260509042916 54 203 2.0 3.0 0.00 0.00 0.00 91 1008.2
20260509041916 54 203 3.0 5.0 0.00 0.00 0.00 91 1008.3
20260509040916 55 225 5.0 9.0 0.00 0.00 0.00 91 1008.4
20260509035916 54 180 2.0 5.0 0.00 0.00 0.00 90 1008.2
20260509034916 55 158 4.0 6.0 0.00 0.00 0.00 90 1008.2
20260509033915 55 225 4.0 7.0 0.00 0.00 0.00 89 1008.2
20260509032916 55 158 4.0 7.0 0.00 0.00 0.00 89 1008.1
20260509031916 55 203 4.0 7.0 0.00 0.00 0.00 88 1008.1
20260509030915 55 180 3.0 6.0 0.00 0.00 0.00 88 1008.1
20260509025915 56 180 3.0 5.0 0.00 0.00 0.00 87 1008.0
20260509024955 56 203 2.0 6.0 0.00 0.00 0.00 86 1008.0
20260509023916 56 180 5.0 10.0 0.00 0.00 0.00 86 1008.0
20260509022915 56 203 4.0 6.0 0.00 0.00 0.00 85 1008.0
20260509021935 56 180 3.0 6.0 0.00 0.00 0.00 84 1007.9
20260509020915 56 180 4.0 8.0 0.00 0.00 0.00 83 1007.9
20260509015915 57 135 2.0 3.0 0.00 0.00 0.00 82 1007.8
20260509014935 57 180 3.0 5.0 0.00 0.00 0.00 81 1007.6
20260509013915 58 158 4.0 6.0 0.00 0.00 0.00 80 1007.8
20260509012935 58 158 5.0 6.0 0.00 0.00 0.00 79 1007.9
20260509011917 59 203 5.0 6.0 0.00 0.00 0.00 79 1007.9
20260509010917 59 180 3.0 4.0 0.00 0.00 0.00 77 1007.8
20260509005917 59 180 3.0 4.0 0.00 0.00 0.00 76 1007.9
20260509004936 59 135 5.0 8.0 0.00 0.00 0.00 75 1007.9
20260509003917 60 225 2.0 3.0 0.00 0.00 0.00 74 1007.8
20260509002917 60 158 3.0 6.0 0.00 0.00 0.00 73 1007.9
20260509001917 61 225 5.0 8.0 0.00 0.00 0.00 73 1007.9
20260509000917 61 203 5.0 13.0 0.00 0.00 0.00 72 1007.9
20260508235917 61 225 7.0 11.0 0.00 0.00 0.00 71 1007.9
20260508234917 61 203 5.0 7.0 0.00 0.00 0.00 70 1008.0
20260508233917 61 180 6.0 10.0 0.00 0.00 0.00 69 1007.9
20260508232917 62 203 6.0 10.0 0.00 0.00 0.00 68 1008.0
20260508231917 62 203 6.0 11.0 0.00 0.00 0.00 68 1008.1
20260508230937 62 180 3.0 6.0 0.00 0.00 0.00 67 1008.1
20260508225917 63 180 5.0 11.0 0.00 0.00 0.00 66 1008.3
20260508224917 64 225 4.0 8.0 0.00 0.00 0.00 65 1008.2
20260508223917 64 225 8.0 16.0 0.00 0.00 0.00 65 1008.2
20260508222917 65 203 7.0 13.0 0.00 0.00 0.00 65 1008.2
20260508221917 66 225 9.0 13.0 0.00 0.00 0.00 59 1008.2
20260508220917 67 135 5.0 8.0 0.00 0.00 0.00 54 1008.3
20260508215917 67 225 6.0 9.0 0.00 0.00 0.00 49 1008.4
20260508214917 68 225 6.0 12.0 0.00 0.00 0.00 52 1008.4
20260508213917 67 248 6.0 10.0 0.00 0.00 0.00 51 1008.4
20260508212916 67 225 7.0 9.0 0.00 0.00 0.00 54 1008.5
20260508211917 67 135 4.0 9.0 0.00 0.00 0.00 54 1008.6
20260508210916 68 158 4.0 7.0 0.00 0.00 0.00 52 1008.8
20260508210057 68 203 7.0 13.0 0.00 0.00 0.00 49 1009.0
20260508204917 67 225 4.0 7.0 0.00 0.00 0.00 52 1009.0
20260508203916 66 270 2.0 4.0 0.00 0.00 0.00 53 1009.2
20260508202916 66 270 6.0 10.0 0.00 0.00 0.00 55 1009.4
20260508201916 66 293 5.0 7.0 0.00 0.00 0.00 58 1009.5
20260508200917 65 293 6.0 9.0 0.00 0.00 0.00 58 1009.6
20260508195916 65 135 3.0 10.0 0.00 0.00 0.00 63 1009.7
20260508194916 64 225 3.0 6.0 0.00 0.00 0.00 64 1009.8
20260508193916 63 203 4.0 8.0 0.00 0.00 0.00 65 1009.8
20260508192916 63 203 4.0 8.0 0.00 0.00 0.00 68 1009.9
20260508191917 62 225 5.0 9.0 0.00 0.00 0.00 67 1009.9
20260508190916 61 225 7.0 10.0 0.00 0.00 0.00 67 1009.8
20260508185916 60 225 5.0 7.0 0.00 0.00 0.00 68 1009.9
20260508184916 60 180 5.0 6.0 0.00 0.00 0.00 73 1010.1
20260508183916 60 180 5.0 7.0 0.00 0.00 0.00 72 1010.1
20260508182916 60 225 6.0 8.0 0.00 0.00 0.00 72 1010.1
20260508181916 59 225 2.0 5.0 0.00 0.00 0.00 74 1009.9
20260508180916 59 270 2.0 4.0 0.00 0.00 0.00 75 1010.1
20260508175936 59 180 4.0 6.0 0.00 0.00 0.00 75 1010.3
20260508174916 59 203 3.0 6.0 0.00 0.00 0.00 73 1010.6
20260508173916 59 158 3.0 6.0 0.00 0.00 0.00 73 1010.5
20260508172916 59 180 3.0 4.0 0.00 0.00 0.00 72 1010.7
20260508171916 59 180 4.0 9.0 0.00 0.00 0.00 72 1010.9
20260508170916 59 225 3.0 6.0 0.00 0.00 0.00 71 1010.9
20260508165936 60 180 4.0 7.0 0.00 0.00 0.00 72 1011.1
20260508164916 60 180 3.0 5.0 0.00 0.00 0.00 73 1011.2
20260508163936 59 225 6.0 12.0 0.00 0.00 0.00 71 1011.3
20260508162916 60 203 4.0 8.0 0.00 0.00 0.00 74 1011.5
20260508161916 59 203 6.0 9.0 0.00 0.00 0.00 74 1011.4
20260508160916 58 158 3.0 5.0 0.00 0.00 0.00 77 1011.3
20260508155916 58 158 7.0 9.0 0.00 0.00 0.00 78 1011.3
20260508154916 57 158 7.0 11.0 0.00 0.00 0.00 80 1011.2
20260508153916 56 180 6.0 9.0 0.00 0.00 0.00 83 1011.3
20260508152916 55 158 4.0 6.0 0.00 0.00 0.00 85 1011.4